Chickasha, OK

3:33 AM CDT on August 22, 2017 (GMT -0500)
Chickasha Municipal

Weather History for KCHK - November, 2012

Change the Weather History Date:

Monday, November 26, 2012

  Actual Average Record
Temperature  
Mean Temperature 43 °F -  
Max Temperature 51 °F 60 °F 82 °F (1970)
Min Temperature 33 °F 38 °F 13 °F (1975)
Degree Days  
Heating Degree Days 22    
Moisture  
Dew Point 33 °F    
Average Humidity 73    
Maximum Humidity 93    
Minimum Humidity 50    
Precipitation  
Precipitation 0.00 in - - ()
Sea Level Pressure  
Sea Level Pressure 30.07 in    
Wind  
Wind Speed 12 mph (North)    
Max Wind Speed 31 mph    
Max Gust Speed 37 mph    
Visibility 10 miles    
Events      
Averages and records for this station are not official NWS values.
T = Trace of Precipitation, MM = Missing Value Source: NWS Daily Summary

Daily Weather History Graph

Daily Weather History Graph

Search for Another Location

Airport or City:

Trip Planner

Search our weather history database for the weather conditions in past years. The results will help you decide how hot, cold, wet, or windy it might be!

Date:

Astronomy

Nov. 26, 2012 Rise Set
Actual Time 7:17 AM CST 5:20 PM CST
Civil Twilight 6:50 AM CST 5:48 PM CST
Nautical Twilight 6:18 AM CST 6:19 PM CST
Astronomical Twilight 5:48 AM CST 6:50 PM CST
Moon 4:12 PM CST (11/26) 5:31 AM CST (11/26)
Length of Visible Light 10h 58m
Length of Day
10h 03m
Waxing Gibbous, 97% of the Moon is Illuminated
Nov 26
Waxing Gibbous
Nov 28
Full
Dec 6
Last Quarter
Dec 13
New
Dec 19
First Quarter

Hourly Weather History & Observations

Time (CST) Temp. Windchill Dew Point Humidity Pressure Visibility Wind Dir Wind Speed Gust Speed Precip Events Conditions
12:15 AM 39.2 °F 35.9 °F 35.6 °F 87% 29.84 in 10.0 mi NNW 4.6 mph - N/A   Clear
12:35 AM 37.4 °F 33.8 °F 35.6 °F 93% 29.84 in 10.0 mi North 4.6 mph - N/A   Clear
12:55 AM 39.2 °F 35.9 °F 35.6 °F 87% 29.84 in 10.0 mi NNE 4.6 mph - N/A   Clear
1:15 AM 37.4 °F 34.9 °F 35.6 °F 93% 29.84 in 10.0 mi NE 3.5 mph - N/A   Clear
1:35 AM 39.2 °F 35.9 °F 35.6 °F 87% 29.83 in 10.0 mi North 4.6 mph - N/A   Clear
1:55 AM 37.4 °F - 35.6 °F 93% 29.84 in 10.0 mi Calm Calm - N/A   Clear
2:15 AM 37.4 °F 33.8 °F 35.6 °F 93% 29.83 in 10.0 mi NNE 4.6 mph - N/A   Clear
2:35 AM 37.4 °F 32.8 °F 35.6 °F 93% 29.83 in 10.0 mi NNE 5.8 mph - N/A   Clear
2:55 AM 37.4 °F 33.8 °F 35.6 °F 93% 29.84 in 10.0 mi NW 4.6 mph - N/A   Scattered Clouds
3:15 AM 37.4 °F 34.9 °F 35.6 °F 93% 29.85 in 10.0 mi North 3.5 mph - N/A   Clear
3:35 AM 35.6 °F 32.8 °F 33.8 °F 93% 29.85 in 10.0 mi North 3.5 mph - N/A   Clear
3:55 AM 35.6 °F 31.7 °F 33.8 °F 93% 29.85 in 10.0 mi North 4.6 mph - N/A   Clear
4:15 AM 35.6 °F 31.7 °F 33.8 °F 93% 29.85 in 10.0 mi NNW 4.6 mph - N/A   Clear
4:35 AM 35.6 °F 29.2 °F 33.8 °F 93% 29.85 in 10.0 mi North 8.1 mph - N/A   Clear
4:55 AM 37.4 °F 29.8 °F 35.6 °F 93% 29.84 in 10.0 mi NNE 11.5 mph - N/A   Clear
5:15 AM 37.4 °F 29.8 °F 35.6 °F 93% 29.85 in 10.0 mi NNE 11.5 mph - N/A   Clear
5:35 AM 35.6 °F 29.2 °F 33.8 °F 93% 29.87 in 10.0 mi North 8.1 mph - N/A   Clear
5:55 AM 35.6 °F 30.7 °F 33.8 °F 93% 29.88 in 10.0 mi NNW 5.8 mph - N/A   Clear
6:15 AM 35.6 °F 32.8 °F 33.8 °F 93% 29.89 in 10.0 mi North 3.5 mph - N/A   Clear
6:35 AM 35.6 °F 27.5 °F 33.8 °F 93% 29.90 in 10.0 mi North 11.5 mph - N/A   Clear
6:55 AM 35.6 °F 26.6 °F 33.8 °F 93% 29.91 in 10.0 mi North 13.8 mph - N/A   Clear
7:15 AM 35.6 °F 25.9 °F 33.8 °F 93% 29.91 in 10.0 mi North 16.1 mph - N/A   Clear
7:35 AM 35.6 °F 26.2 °F 33.8 °F 93% 29.92 in 10.0 mi North 15.0 mph - N/A   Clear
7:55 AM 37.4 °F 30.8 °F 33.8 °F 87% 29.95 in 10.0 mi North 9.2 mph - N/A   Clear
8:15 AM 37.4 °F 29.8 °F 33.8 °F 87% 29.97 in 10.0 mi North 11.5 mph - N/A   Clear
8:35 AM 39.2 °F 31.2 °F 33.8 °F 81% 29.99 in 10.0 mi North 13.8 mph - N/A   Clear
8:55 AM 41.0 °F 32.8 °F 35.6 °F 81% 30.00 in 10.0 mi North 16.1 mph 23.0 mph N/A   Clear
9:15 AM 41.0 °F 32.8 °F 35.6 °F 81% 30.01 in 10.0 mi North 16.1 mph 20.7 mph N/A   Clear
9:35 AM 42.8 °F 34.3 °F 35.6 °F 76% 30.03 in 10.0 mi North 19.6 mph 25.3 mph N/A   Clear
9:55 AM 42.8 °F 34.5 °F 35.6 °F 76% 30.05 in 10.0 mi North 18.4 mph - N/A   Clear
10:15 AM 44.6 °F 35.5 °F 35.6 °F 71% 30.05 in 10.0 mi North 25.3 mph - N/A   Clear
10:35 AM 46.4 °F 38.1 °F 37.4 °F 71% 30.05 in 10.0 mi North 24.2 mph - N/A   Clear
10:55 AM 46.4 °F 37.5 °F 35.6 °F 66% 30.05 in 10.0 mi North 27.6 mph - N/A   Clear
11:15 AM 48.2 °F - 37.4 °F 66% 30.06 in 10.0 mi North 24.2 mph 29.9 mph N/A   Clear
11:35 AM 48.2 °F - 37.4 °F 66% 30.06 in 10.0 mi North 23.0 mph 31.1 mph N/A   Clear
11:55 AM 48.2 °F - 35.6 °F 62% 30.06 in 10.0 mi North 26.5 mph 31.1 mph N/A   Clear
12:15 PM 48.2 °F - 35.6 °F 62% 30.07 in 10.0 mi North 24.2 mph 29.9 mph N/A   Mostly Cloudy
12:35 PM 48.2 °F - 35.6 °F 62% 30.07 in 10.0 mi North 25.3 mph 31.1 mph N/A   Scattered Clouds
12:55 PM 50.0 °F - 35.6 °F 58% 30.07 in 10.0 mi North 26.5 mph 29.9 mph N/A   Clear
1:15 PM 51.8 °F - 35.6 °F 54% 30.08 in 10.0 mi North 24.2 mph 32.2 mph N/A   Clear
1:35 PM 51.8 °F - 35.6 °F 54% 30.09 in 10.0 mi North 26.5 mph 34.5 mph N/A   Scattered Clouds
1:55 PM 50.0 °F - 35.6 °F 58% 30.10 in 10.0 mi North 25.3 mph 34.5 mph N/A   Mostly Cloudy
2:15 PM 51.8 °F - 35.6 °F 54% 30.10 in 10.0 mi North 26.5 mph 33.4 mph N/A   Scattered Clouds
2:35 PM 48.2 °F - 33.8 °F 58% 30.12 in 10.0 mi North 23.0 mph 34.5 mph N/A   Mostly Cloudy
2:55 PM 50.0 °F - 33.8 °F 54% 30.13 in 10.0 mi North 23.0 mph 33.4 mph N/A   Overcast
3:15 PM 51.8 °F - 33.8 °F 50% 30.13 in 10.0 mi North 26.5 mph 33.4 mph N/A   Mostly Cloudy
3:35 PM 51.8 °F - 33.8 °F 50% 30.14 in 10.0 mi North 28.8 mph 36.8 mph N/A   Scattered Clouds
3:55 PM 51.8 °F - 33.8 °F 50% 30.14 in 10.0 mi North 31.1 mph 35.7 mph N/A   Clear
4:15 PM 51.8 °F - 33.8 °F 50% 30.16 in 10.0 mi North 26.5 mph 32.2 mph N/A   Clear
4:55 PM 48.2 °F - 32.0 °F 54% 30.19 in 10.0 mi North 24.2 mph 32.2 mph N/A   Clear
5:15 PM 48.2 °F - 33.8 °F 58% 30.21 in 10.0 mi North 17.3 mph 26.5 mph N/A   Clear
5:35 PM 46.4 °F 39.8 °F 32.0 °F 57% 30.22 in 10.0 mi North 16.1 mph 25.3 mph N/A   Clear
5:55 PM 46.4 °F 39.8 °F 32.0 °F 57% 30.23 in 10.0 mi North 16.1 mph 23.0 mph N/A   Clear
6:15 PM 44.6 °F 37.2 °F 32.0 °F 61% 30.24 in 10.0 mi North 17.3 mph 21.9 mph N/A   Clear
6:35 PM 42.8 °F 34.8 °F 30.2 °F 61% 30.26 in 10.0 mi North 17.3 mph 23.0 mph N/A   Clear
6:55 PM 42.8 °F 34.8 °F 30.2 °F 61% 30.26 in 10.0 mi North 17.3 mph 23.0 mph N/A   Clear
7:15 PM 42.8 °F 34.8 °F 28.4 °F 57% 30.28 in 10.0 mi North 17.3 mph - N/A   Clear
7:35 PM 41.0 °F 33.5 °F 28.4 °F 61% 30.29 in 10.0 mi North 13.8 mph 20.7 mph N/A   Clear
7:55 PM 41.0 °F 33.1 °F 28.4 °F 61% 30.31 in 10.0 mi NNE 15.0 mph - N/A   Clear
8:15 PM 41.0 °F 32.8 °F 28.4 °F 61% 30.32 in 10.0 mi NNE 16.1 mph - N/A   Clear
8:35 PM 41.0 °F 32.8 °F 26.6 °F 57% 30.33 in 10.0 mi NNE 16.1 mph - N/A   Clear
8:55 PM 39.2 °F 32.5 °F 26.6 °F 61% 30.34 in 10.0 mi North 10.4 mph - N/A   Clear
9:35 PM 37.4 °F 28.5 °F 28.4 °F 70% 30.36 in 10.0 mi North 15.0 mph - N/A   Clear
9:55 PM 37.4 °F 28.5 °F 28.4 °F 70% 30.36 in 10.0 mi North 15.0 mph - N/A   Clear
10:15 PM 37.4 °F 28.9 °F 28.4 °F 70% 30.36 in 10.0 mi NNE 13.8 mph 21.9 mph N/A   Clear
10:35 PM 37.4 °F 27.8 °F 28.4 °F 70% 30.36 in 10.0 mi NNE 17.3 mph - N/A   Clear
10:55 PM 35.6 °F 26.6 °F 26.6 °F 70% 30.37 in 10.0 mi North 13.8 mph - N/A   Clear
11:15 PM 35.6 °F 27.1 °F 26.6 °F 70% 30.38 in 10.0 mi North 12.7 mph - N/A   Clear
11:35 PM 35.6 °F 27.1 °F 28.4 °F 75% 30.38 in 10.0 mi North 12.7 mph - N/A   Clear
11:55 PM 33.8 °F 25.8 °F 26.6 °F 75% 30.38 in 10.0 mi North 10.4 mph - N/A   Clear